Weather Roundup
Issued by NWS Springfield, MO

Home | Current Version | Previous Version | Text Only | Print | Product List | Glossary On
Versions: 1 2 3 4 5 6 7 8 9 10 11 12 13 14 15 16 17 18 19 20 21 22 23 24 25 26 27 28 29 30 31 32 33 34 35 36 37 38 39 40 41 42 43 44 45 46 47 48 49 50
000
NZUS99 KSGF 260507
HRRSGF

HOURLY WEATHER
NATIONAL WEATHER SERVICE SPRINGFIELD MO
1100 PM CST SUN JAN 25 2015

......SGF CWA......

CITY           SKY/WX    TMP DP  RH WIND       PRES   REMARKS
SPRINGFIELD    CLOUDY    36  32  85 N15       30.07R WCI  27
JOPLIN         CLOUDY    39  30  70 NW13      30.13R WCI  31
WEST PLAINS    CLOUDY    33  30  88 N13G23    30.01R WCI  24
ROLLA          CLOUDY    30  27  88 NW12      30.02R WCI  20
OSAGE BEACH    CLOUDY    34  28  80 N6        30.07R WCI  29
BRANSON        CLOUDY    37  32  81 NW9G18    30.06R WCI  31

......SURROUNDING SGF CWA......

CITY           SKY/WX    TMP DP  RH WIND       PRES   REMARKS
CHANUTE        CLOUDY    37  31  78 CALM      30.13R
PARSONS        MOCLDY    30  27  88 CALM      30.14R
COFFEYVILLE    CLEAR     34  29  82 NW6       30.14R WCI  29
EMPORIA        CLEAR     31  27  85 W5        30.11F WCI  26
GROVE OK       CLOUDY    41  32  70 N8        30.14S
ROGERS AR      CLOUDY    38  30  73 N9        30.10R WCI  31
SILOAM SPRINGS CLOUDY    39  27  60 N12G21    30.13R WCI  32
HARRISON AR    MOCLDY    37  32  82 NW10      30.04R WCI  30
NEAR YELLVILLE CLOUDY    39  30  70 NW10G18   30.04R WCI  32

......KANSAS AND MISSOURI......

CITY           SKY/WX    TMP DP  RH WIND       PRES   REMARKS
KANSAS CTY INT PTCLDY    31  28  89 CALM      30.10F
DOWNTOWN KC    PTCLDY    33  28  81 CALM      30.11F
COLUMBIA       CLOUDY    31  28  89 N13       30.07R WCI  21
SEDALIA        CLOUDY    34  29  82 N10       30.11R WCI  26
ST JOSEPH      PTCLDY    23  21  92 CALM      30.12R
ST LOUIS       CLOUDY    32  26  78 N20       30.02R WCI  20
SPIRIT OF STL  CLOUDY    32  25  75 NW12G21   30.03R WCI  23
KIRKSVILLE     CLOUDY    29  26  89 N5        30.08S WCI  24
WICHITA        CLEAR     29  23  78 W6        30.14R WCI  23
TOPEKA         CLEAR     30  25  81 CALM      30.12R
OLATHE         MOCLDY    32  28  85 CALM      30.10S

......TENNESSEE......

CITY           SKY/WX    TMP DP  RH WIND       PRES   REMARKS
MEMPHIS        CLOUDY    44  35  70 NW15      29.92R
NASHVILLE      LGT RAIN  44  41  89 W9        29.73R

......ARKANSAS.......

CITY           SKY/WX    TMP DP  RH WIND       PRES   REMARKS
FAYETTEVILLE   CLOUDY    38  31  76 N13       30.10R WCI  30
FT SMITH       CLOUDY    44  31  60 N14       30.13R
LITTLE ROCK    MOCLDY    47  32  56 NW15G24   30.02R

......OKLAHOMA.......

CITY           SKY/WX    TMP DP  RH WIND       PRES   REMARKS
TULSA          CLEAR     34  30  85 NW5       30.15R WCI  30
PONCA CITY     CLEAR     30  25  81 CALM      30.15R
MCALESTER      PTCLDY    40  31  70 N7        30.15R
OKLAHOMA CITY  CLEAR     40  26  57 NW3       30.17R

......IOWA............

CITY           SKY/WX    TMP DP  RH WIND       PRES   REMARKS
DES MOINES     CLOUDY    32  23  69 NW6       30.07F WCI  26
QUAD CITIES    PTCLDY    20  13  74 N6        30.05F WCI  12

......ILLINOIS........

CITY           SKY/WX    TMP DP  RH WIND       PRES   REMARKS
QUINCY         CLEAR     24  20  84 N9        30.05S WCI  14
CHICAGO        MOCLDY    24  15  68 NE9       29.99R WCI  14



USA.gov is the U.S. government's official web portal to all federal, state and local government web resources and services.